[[{"header":{"parameterUnit":"m.s-1","parameterCategory":1,"la1":30.2991,"la2":30.254,"lo1":-89.0895,"lo2":-89.0444,"dy":0.0017,"dx":0.0017,"nx":28,"ny":28,"refTime":"2024-09-30T09:00:00:Z","depth":0,"parameterNumber":2,"parameterNumberName":"U-component_of_WINDS"},"data":[0,0,0,0,0,0,0,0,0,0,0,0,0,0,0,0,0,0,0,0,0,0,0,0,0,0,0,0,0,0,0,0,0,0,0,0,0,0,0,0,0,0,0,0,0,0,0,0,0,0,0,0,0,0,0,0,0,0,-0.1824,-0.1824,0,-0.1831,-0.1831,-0.1831,-0.1843,-0.1843,-0.1843,-0.1843,-0.185,-0.185,-0.185,0,0,0,0,0,0,0,0,0,0,0,0,0,-0.1819,-0.1819,-0.1824,-0.1824,-0.1824,-0.1831,-0.1831,-0.1831,-0.1843,-0.1843,-0.1843,-0.1843,-0.185,-0.185,-0.185,0,0,0,0,0,0,0,0,0,0,0,0,0,-0.1823,-0.1819,-0.1824,-0.183,-0.1831,-0.1831,-0.1831,-0.1831,-0.1843,-0.1843,-0.1843,-0.1843,-0.185,-0.185,-0.185,-0.1844,0,0,-0.185,-0.185,0,0,0,0,0,0,0,0,-0.1823,-0.1823,-0.1829,-0.183,-0.1831,-0.1836,-0.1832,-0.1836,-0.1842,-0.1838,-0.1843,-0.1844,-0.1845,-0.1846,-0.1847,-0.1845,-0.1845,-0.185,-0.185,-0.185,-0.185,0,0,0,0,0,0,0,-0.1822,-0.1823,-0.1827,-0.1829,-0.183,-0.1833,-0.1834,-0.1833,-0.184,-0.1839,-0.1839,-0.184,-0.1846,-0.1847,-0.1847,-0.1845,-0.185,-0.185,-0.185,-0.185,-0.1836,-0.1836,0,0,0,0,0,0,-0.1821,-0.1822,-0.1826,-0.1827,-0.1827,-0.1833,-0.1834,-0.1834,-0.184,-0.1841,-0.184,-0.1841,-0.1846,-0.1847,-0.1847,-0.1839,-0.185,-0.185,-0.185,-0.1837,-0.1836,-0.1836,0,0,0,0,0,0,-0.1821,-0.1821,-0.1826,-0.1825,-0.1826,-0.1832,-0.1833,-0.1834,-0.1835,-0.1841,-0.1842,-0.1839,-0.1847,-0.1847,-0.1844,-0.184,-0.185,-0.185,-0.1837,-0.1837,-0.1836,-0.1824,0,0,0,0,0,0,-0.1821,-0.1821,-0.1819,-0.1825,-0.1826,-0.1824,-0.1833,-0.1834,-0.1835,-0.1836,-0.1841,-0.1842,-0.1847,-0.1844,-0.1844,-0.184,-0.185,-0.1838,-0.1837,-0.1836,-0.1824,-0.1823,-0.1821,0,0,0,0,0,-0.182,-0.1816,-0.1819,-0.1819,-0.1823,-0.1823,-0.1824,-0.183,-0.1834,-0.1832,-0.1836,-0.1842,-0.184,-0.1844,-0.1844,-0.1839,-0.1838,-0.1837,-0.1836,-0.1825,-0.1823,-0.1821,0,0,0,0,0,0,-0.181,-0.1817,-0.182,-0.1817,-0.182,-0.1825,-0.1823,-0.1828,-0.1829,-0.183,-0.1837,-0.1838,-0.1834,-0.1837,-0.1841,-0.1833,-0.184,-0.1839,-0.1831,-0.1829,-0.1828,-0.1827,-0.185,0,0,0,0,0,-0.1807,-0.1807,-0.1813,-0.1809,-0.181,-0.1816,-0.1816,-0.1821,-0.1823,-0.1824,-0.1828,-0.183,-0.183,-0.183,-0.183,-0.1825,-0.1825,-0.1822,-0.182,-0.1819,-0.1818,-0.1813,-0.1811,-0.1833,-0.1833,-0.1833,0,0,-0.1801,-0.1805,-0.1804,-0.1807,-0.1809,-0.1808,-0.1817,-0.1816,-0.1815,-0.1824,-0.1822,-0.1824,-0.1827,-0.1823,-0.1821,-0.1825,-0.1812,-0.1817,-0.1816,-0.1816,-0.1812,-0.181,-0.1808,-0.1833,-0.1833,-0.1833,0,0,-0.179,-0.1793,-0.179,-0.1792,-0.1795,-0.1799,-0.1798,-0.1803,-0.1805,-0.1803,-0.1809,-0.1808,-0.1808,-0.1809,-0.181,-0.1798,-0.1803,-0.1798,-0.1789,-0.1785,-0.1783,-0.1782,-0.1776,-0.1775,-0.1797,-0.1797,-0.1797,0,-0.1782,-0.1781,-0.1788,-0.1786,-0.1786,-0.1795,-0.1791,-0.1793,-0.1796,-0.1796,-0.18,-0.1799,-0.1802,-0.1797,-0.1794,-0.1795,-0.1793,-0.1797,-0.1783,-0.1782,-0.178,-0.1775,-0.1773,-0.1796,-0.1797,-0.1797,-0.1797,0,-0.1771,-0.177,-0.1768,-0.177,-0.177,-0.1767,-0.1773,-0.1772,-0.1776,-0.1779,-0.1776,-0.1779,-0.178,-0.1779,-0.1783,-0.1775,-0.1777,-0.1782,-0.1789,-0.1777,-0.1773,-0.1771,-0.1795,-0.1796,-0.1796,-0.1796,0,0,-0.1754,-0.1759,-0.1758,-0.1759,-0.1762,-0.1762,-0.1759,-0.1759,-0.1758,-0.1759,-0.1757,-0.1756,-0.176,-0.1761,-0.1765,-0.1762,-0.175,-0.1767,-0.1767,-0.1763,-0.1739,-0.1735,-0.1733,-0.1754,-0.1753,-0.1753,-0.1739,0,-0.1743,-0.1739,-0.1744,-0.1738,-0.1737,-0.1744,-0.1741,-0.1743,-0.1745,-0.1744,-0.1747,-0.1746,-0.1752,-0.1753,-0.175,-0.1752,-0.1745,-0.1754,-0.175,-0.175,-0.1748,-0.173,-0.1726,-0.1712,-0.1737,-0.1737,-0.1737,0,-0.173,-0.173,-0.1724,-0.1727,-0.1727,-0.1724,-0.1724,-0.1723,-0.1725,-0.1727,-0.1727,-0.1732,-0.1728,-0.1735,-0.173,-0.1735,-0.1734,-0.1735,-0.1735,-0.1734,-0.1742,-0.1728,-0.1708,-0.1706,-0.1734,-0.1734,-0.1734,0,-0.1717,-0.1716,-0.1712,-0.1712,-0.1716,-0.1713,-0.1715,-0.1717,-0.1716,-0.1716,-0.1715,-0.1715,-0.1714,-0.1713,-0.1718,-0.1723,-0.1711,-0.1719,-0.1712,-0.1712,-0.1709,-0.1709,-0.1687,-0.171,-0.171,-0.171,-0.171,0,-0.1703,-0.1699,-0.1706,-0.1703,-0.1698,-0.1704,-0.1698,-0.17,-0.1702,-0.1699,-0.1705,-0.1703,-0.1709,-0.1706,-0.171,-0.1704,-0.1704,-0.1705,-0.1706,-0.1704,-0.1704,-0.1703,-0.1704,-0.1709,-0.1709,-0.1709,-0.171,0,-0.1688,-0.1692,-0.1688,-0.1691,-0.1692,-0.1688,-0.169,-0.1687,-0.169,-0.1687,-0.1686,-0.169,-0.1688,-0.1692,-0.169,-0.1692,-0.1684,-0.1687,-0.1683,-0.1684,-0.1676,-0.1676,-0.1652,-0.1649,-0.1674,-0.1674,-0.1674,0,-0.1679,-0.1676,-0.1678,-0.1677,-0.1677,-0.1675,-0.1674,-0.168,-0.1678,-0.1679,-0.1676,-0.1674,-0.1672,-0.1668,-0.167,-0.1668,-0.167,-0.1662,-0.167,-0.1668,-0.1669,-0.1669,-0.1668,-0.166,-0.166,-0.166,-0.166,0,-0.1662,-0.1664,-0.1663,-0.1661,-0.166,-0.166,-0.1659,-0.1658,-0.1663,-0.1661,-0.1658,-0.1657,-0.1655,-0.1652,-0.1651,-0.1651,-0.1656,-0.1657,-0.1655,-0.1653,-0.1651,-0.165,-0.1678,-0.1658,-0.1658,-0.1658,-0.1658,-0.1658,-0.1649,-0.1646,-0.1646,-0.1644,-0.1645,-0.1644,-0.1641,-0.1643,-0.1641,-0.1639,-0.1642,-0.1638,-0.1639,-0.1637,-0.1637,-0.1634,-0.1637,-0.1635,-0.1634,-0.1633,-0.1631,-0.1652,-0.1634,-0.1634,-0.1634,-0.1634,-0.1634,0,-0.1631,-0.1632,-0.163,-0.1629,-0.1627,-0.1632,-0.1631,-0.1629,-0.1626,-0.1626,-0.1624,-0.162,-0.1617,-0.1619,-0.1616,-0.1613,-0.1615,-0.1612,-0.1612,-0.1611,-0.1629,-0.163,-0.161,-0.161,-0.161,-0.161,-0.161,-0.161,-0.1622,-0.1616,-0.1618,-0.1612,-0.1613,-0.1609,-0.1609,-0.1608,-0.1607,-0.1603,-0.16,-0.1601,-0.1602,-0.1599,-0.1596,-0.1597,-0.1595,-0.1591,-0.1592,-0.1608,-0.161,-0.1613,-0.1614,-0.1591,-0.1591,-0.1575,-0.1575,-0.1575]},{"header":{"parameterUnit":"m.s-1","parameterCategory":1,"la1":30.2991,"la2":30.254,"lo1":-89.0895,"lo2":-89.0444,"dy":0.0017,"dx":0.0017,"nx":28,"ny":28,"refTime":"2024-09-30T09:00:00:Z","depth":0,"parameterNumber":3,"parameterNumberName":"V-component_of_WINDS"},"data":[0,0,0,0,0,0,0,0,0,0,0,0,0,0,0,0,0,0,0,0,0,0,0,0,0,0,0,0,0,0,0,0,0,0,0,0,0,0,0,0,0,0,0,0,0,0,0,0,0,0,0,0,0,0,0,0,0,0,-2.3415,-2.3416,0,-2.3472,-2.3472,-2.3473,-2.3472,-2.3472,-2.3471,-2.347,-2.3525,-2.3528,-2.353,0,0,0,0,0,0,0,0,0,0,0,0,0,-2.3306,-2.3308,-2.3415,-2.3416,-2.3417,-2.3472,-2.3472,-2.3473,-2.3472,-2.3471,-2.3471,-2.347,-2.3525,-2.3527,-2.353,0,0,0,0,0,0,0,0,0,0,0,0,0,-2.3357,-2.3308,-2.3415,-2.3423,-2.3424,-2.3471,-2.3472,-2.3473,-2.3473,-2.3471,-2.347,-2.3469,-2.3524,-2.3527,-2.353,-2.3573,0,0,-2.354,-2.3542,0,0,0,0,0,0,0,0,-2.3354,-2.3361,-2.3421,-2.3423,-2.3424,-2.3464,-2.3454,-2.3507,-2.3473,-2.3454,-2.347,-2.3469,-2.3506,-2.351,-2.3523,-2.3575,-2.3578,-2.354,-2.3542,-2.3544,-2.3545,0,0,0,0,0,0,0,-2.335,-2.3358,-2.3438,-2.3422,-2.3424,-2.3423,-2.3429,-2.3464,-2.3485,-2.3456,-2.3456,-2.3463,-2.3506,-2.352,-2.3525,-2.3578,-2.354,-2.3543,-2.3545,-2.3547,-2.3668,-2.3669,0,0,0,0,0,0,-2.3345,-2.3355,-2.3436,-2.3439,-2.3386,-2.3426,-2.3433,-2.3452,-2.3485,-2.3489,-2.3464,-2.3462,-2.3515,-2.3521,-2.3527,-2.3578,-2.3544,-2.3547,-2.3549,-2.3667,-2.3669,-2.367,0,0,0,0,0,0,-2.3343,-2.3353,-2.3434,-2.3397,-2.3408,-2.3429,-2.3451,-2.3454,-2.3468,-2.3491,-2.3495,-2.3474,-2.3515,-2.3522,-2.3561,-2.358,-2.3548,-2.3551,-2.3665,-2.3667,-2.3669,-2.3682,0,0,0,0,0,0,-2.334,-2.3352,-2.3368,-2.3398,-2.341,-2.3468,-2.3452,-2.3456,-2.3474,-2.3473,-2.3502,-2.3505,-2.3514,-2.3557,-2.3565,-2.3584,-2.3554,-2.3664,-2.3666,-2.3669,-2.368,-2.3684,-2.3688,0,0,0,0,0,-2.3336,-2.3369,-2.3369,-2.3379,-2.3431,-2.3469,-2.3476,-2.3486,-2.3475,-2.3492,-2.3507,-2.3504,-2.3577,-2.3561,-2.357,-2.359,-2.3663,-2.3666,-2.3668,-2.3678,-2.3683,-2.3687,0,0,0,0,0,0,-2.334,-2.3373,-2.3373,-2.3417,-2.344,-2.3469,-2.349,-2.3491,-2.3517,-2.3515,-2.3526,-2.3532,-2.3572,-2.3585,-2.3566,-2.3633,-2.3619,-2.3623,-2.3623,-2.3628,-2.3632,-2.3627,-2.3557,0,0,0,0,0,-2.3346,-2.3375,-2.3402,-2.3438,-2.345,-2.3468,-2.3485,-2.3491,-2.3515,-2.3525,-2.3542,-2.3565,-2.3594,-2.3612,-2.3639,-2.3682,-2.3688,-2.3701,-2.3705,-2.3708,-2.3712,-2.3736,-2.3741,-2.3679,-2.3679,-2.3679,0,0,-2.3359,-2.338,-2.3398,-2.3439,-2.3458,-2.3487,-2.3476,-2.3507,-2.3529,-2.3529,-2.3567,-2.3582,-2.3608,-2.365,-2.3669,-2.3662,-2.373,-2.3712,-2.3714,-2.3716,-2.3739,-2.3745,-2.375,-2.3681,-2.3681,-2.3681,0,0,-2.3396,-2.3416,-2.3448,-2.3467,-2.3496,-2.3508,-2.3516,-2.3545,-2.3555,-2.3594,-2.3595,-2.362,-2.3668,-2.3687,-2.3703,-2.375,-2.3748,-2.3758,-2.3777,-2.3801,-2.3806,-2.381,-2.3826,-2.3832,-2.3762,-2.3762,-2.3762,0,-2.3408,-2.3452,-2.3464,-2.3496,-2.3514,-2.3517,-2.3549,-2.3568,-2.3603,-2.3616,-2.3608,-2.3669,-2.3687,-2.3733,-2.3745,-2.3758,-2.3766,-2.3754,-2.3804,-2.3809,-2.3813,-2.3828,-2.3834,-2.3763,-2.3763,-2.3763,-2.3763,0,-2.3465,-2.3496,-2.3518,-2.3554,-2.3575,-2.3607,-2.3623,-2.3643,-2.3647,-2.366,-2.37,-2.3722,-2.3754,-2.3766,-2.377,-2.3813,-2.3807,-2.3802,-2.3787,-2.382,-2.3834,-2.384,-2.3764,-2.3764,-2.3764,-2.3763,0,0,-2.3505,-2.3548,-2.3556,-2.3572,-2.3605,-2.3629,-2.3661,-2.3693,-2.3709,-2.3735,-2.3761,-2.3803,-2.3798,-2.3816,-2.3823,-2.3844,-2.3879,-2.3836,-2.3837,-2.3842,-2.3926,-2.393,-2.3936,-2.3879,-2.388,-2.3881,-2.3924,0,-2.3545,-2.3603,-2.3615,-2.3664,-2.3693,-2.3697,-2.3725,-2.3748,-2.3761,-2.3787,-2.3802,-2.3831,-2.3823,-2.3834,-2.3854,-2.387,-2.3895,-2.3867,-2.3903,-2.3904,-2.3895,-2.3944,-2.3947,-2.3987,-2.393,-2.3931,-2.3932,0,-2.3599,-2.3627,-2.3679,-2.3709,-2.3722,-2.3747,-2.3777,-2.3802,-2.3828,-2.3837,-2.3858,-2.3863,-2.3896,-2.3881,-2.3926,-2.3907,-2.3922,-2.3932,-2.3934,-2.3936,-2.3919,-2.3947,-2.4,-2.4005,-2.3941,-2.394,-2.3939,0,-2.3622,-2.3672,-2.371,-2.3725,-2.376,-2.3778,-2.3793,-2.3819,-2.3837,-2.3864,-2.3876,-2.3906,-2.3923,-2.3946,-2.3958,-2.3946,-2.4003,-2.3989,-2.401,-2.4009,-2.402,-2.4019,-2.4075,-2.4032,-2.4032,-2.4032,-2.4032,0,-2.3665,-2.3697,-2.3721,-2.3744,-2.378,-2.3794,-2.3829,-2.3845,-2.3868,-2.3894,-2.3899,-2.3923,-2.394,-2.3966,-2.3976,-2.4012,-2.402,-2.4027,-2.4029,-2.4025,-2.4024,-2.4035,-2.4032,-2.4034,-2.4033,-2.4033,-2.4033,0,-2.3696,-2.3714,-2.3755,-2.3787,-2.3795,-2.382,-2.3846,-2.3869,-2.3883,-2.3916,-2.3925,-2.3946,-2.3978,-2.3993,-2.4032,-2.4039,-2.408,-2.408,-2.4071,-2.4071,-2.4091,-2.4089,-2.4155,-2.4164,-2.4116,-2.4116,-2.4117,0,-2.3721,-2.3746,-2.3781,-2.3799,-2.3815,-2.3845,-2.3864,-2.3879,-2.3899,-2.3932,-2.395,-2.3982,-2.4009,-2.4059,-2.4077,-2.4107,-2.4108,-2.413,-2.4113,-2.4109,-2.4107,-2.4105,-2.4108,-2.4132,-2.4132,-2.4133,-2.4133,0,-2.3765,-2.3773,-2.3801,-2.3833,-2.3856,-2.3882,-2.3906,-2.3921,-2.394,-2.3962,-2.3995,-2.4016,-2.4056,-2.4088,-2.4119,-2.4135,-2.4137,-2.4139,-2.4145,-2.4141,-2.4134,-2.4137,-2.4078,-2.4137,-2.4136,-2.4136,-2.4136,-2.4136,-2.3793,-2.3815,-2.3843,-2.3875,-2.3896,-2.3919,-2.3942,-2.396,-2.3988,-2.4022,-2.403,-2.4064,-2.409,-2.4133,-2.415,-2.4177,-2.4172,-2.4181,-2.4183,-2.4185,-2.4186,-2.4131,-2.4183,-2.4183,-2.4183,-2.4183,-2.4182,0,-2.3836,-2.3855,-2.3884,-2.3919,-2.3944,-2.3945,-2.3974,-2.3994,-2.4024,-2.4049,-2.4076,-2.4113,-2.4144,-2.4166,-2.4198,-2.4215,-2.4217,-2.4223,-2.4221,-2.4224,-2.4189,-2.418,-2.4221,-2.4221,-2.4221,-2.4221,-2.4221,-2.4221,-2.3861,-2.3899,-2.391,-2.3958,-2.3977,-2.4011,-2.4027,-2.4049,-2.4069,-2.4111,-2.4137,-2.4152,-2.4176,-2.4209,-2.4237,-2.4243,-2.4254,-2.426,-2.4265,-2.4231,-2.4227,-2.4223,-2.4214,-2.4262,-2.4262,-2.4298,-2.4299,-2.4299]}]]